Simultaneous Nadir Overpasses (SNOs) Predictions

Prediction of SNOs between GOES-16 and NOAA-20 Satellite Orbit:

Table of predicted SNOs for the next 14.0 days since TLE Epoch: 2/20/2021
Index Date Time (GOES-16) GOES-16 Lat,Lon NOAA-20 Lat,Lon Distance(km) Time Diff (sec)
1 02/21/2021 06:32:16 0.00, -75.19 0.28, -76.45 143.74 80
2 02/22/2021 06:10:52 0.01, -75.19 -0.74, -71.92 373.36 80
3 02/23/2021 18:32:48 -0.01, -75.20 -0.43, -77.22 230.03 80
4 02/24/2021 18:16:43 -0.00, -75.20 0.54, -72.68 287.40 80
5 02/26/2021 06:38:31 -0.00, -75.22 0.60, -77.95 311.00 80
6 02/27/2021 06:17:06 -0.00, -75.23 -0.43, -73.42 206.57 80
7 02/28/2021 18:39:02 0.00, -75.24 -0.80, -78.71 396.14 80
8 03/01/2021 18:22:57 0.00, -75.26 0.24, -74.18 122.06 80
9 03/03/2021 06:44:46 -0.00, -75.29 0.90, -79.46 474.86 80
10 03/04/2021 06:23:20 -0.00, -75.30 -0.07, -74.92 43.30 80
